TimePDT,TemperatureF,Dew PointF,Humidity,Sea Level PressureIn,VisibilityMPH,Wind Direction,Wind SpeedMPH,Gust SpeedMPH,PrecipitationIn,Events,Conditions,WindDirDegrees,DateUTC
12:53 AM,62.1,57.9,86,29.84,10.0,NNE,4.6,-,0.04,Rain,Light Rain,20,2013-06-18 07:53:00
1:53 AM,61.0,57.0,87,29.86,10.0,WSW,4.6,-,0.02,Rain,Light Rain,250,2013-06-18 08:53:00
2:53 AM,60.1,55.9,86,29.86,10.0,SSE,4.6,-,0.01,Rain,Light Rain,150,2013-06-18 09:53:00
3:53 AM,60.1,57.0,90,29.87,9.0,Calm,Calm,-,0.02,Rain,Light Rain,0,2013-06-18 10:53:00
4:53 AM,57.9,55.0,90,29.88,10.0,Calm,Calm,-,0.09,Rain,Light Rain,0,2013-06-18 11:53:00
5:53 AM,57.0,54.0,89,29.90,10.0,South,4.6,-,0.00,,Overcast,180,2013-06-18 12:53:00
6:53 AM,57.9,54.0,87,29.90,10.0,Calm,Calm,-,0.01,,Mostly Cloudy,0,2013-06-18 13:53:00
7:53 AM,59.0,54.0,83,29.90,10.0,SSE,3.5,-,N/A,,Mostly Cloudy,150,2013-06-18 14:53:00
8:53 AM,59.0,55.0,87,29.90,10.0,SSE,5.8,-,N/A,,Overcast,160,2013-06-18 15:53:00
9:08 AM,59.0,55.4,88,29.91,10.0,South,5.8,-,N/A,,Overcast,170,2013-06-18 16:08:00
9:53 AM,59.0,54.0,83,29.91,10.0,South,8.1,-,N/A,,Overcast,180,2013-06-18 16:53:00
10:53 AM,57.9,54.0,87,29.91,7.0,SSW,8.1,-,0.02,Rain,Light Rain,200,2013-06-18 17:53:00
11:53 AM,55.9,53.1,90,29.92,8.0,SSE,6.9,-,0.10,Rain,Light Rain,160,2013-06-18 18:53:00
12:53 PM,55.9,53.1,90,29.94,5.0,SSE,8.1,-,0.11,Rain,Rain,160,2013-06-18 19:53:00
1:32 PM,55.4,53.6,94,29.94,5.0,East,6.9,-,0.09,Rain,Rain,100,2013-06-18 20:32:00
1:53 PM,55.9,53.1,90,29.93,6.0,East,5.8,-,0.13,Rain,Light Rain,100,2013-06-18 20:53:00
2:53 PM,57.0,54.0,89,29.92,9.0,ESE,8.1,-,0.09,Rain,Light Rain,110,2013-06-18 21:53:00
3:53 PM,57.0,54.0,89,29.91,10.0,SE,5.8,-,0.01,Rain,Light Rain,140,2013-06-18 22:53:00
4:53 PM,57.0,52.0,83,29.89,10.0,Calm,Calm,-,0.01,Rain,Light Rain,0,2013-06-18 23:53:00
5:53 PM,57.0,53.1,87,29.87,10.0,South,4.6,-,0.01,,Overcast,190,2013-06-19 00:53:00
6:53 PM,57.9,53.1,84,29.85,10.0,SW,6.9,-,N/A,,Mostly Cloudy,220,2013-06-19 01:53:00
7:53 PM,57.9,54.0,87,29.86,10.0,WSW,8.1,-,N/A,,Mostly Cloudy,240,2013-06-19 02:53:00
8:53 PM,57.0,54.0,89,29.85,10.0,SW,6.9,-,N/A,,Mostly Cloudy,230,2013-06-19 03:53:00
9:53 PM,55.9,54.0,93,29.85,10.0,SW,8.1,-,N/A,,Partly Cloudy,220,2013-06-19 04:53:00
10:53 PM,55.9,54.0,93,29.84,10.0,SW,5.8,-,N/A,,Scattered Clouds,230,2013-06-19 05:53:00
11:53 PM,54.0,52.0,93,29.84,10.0,SW,5.8,-,N/A,,Partly Cloudy,220,2013-06-19 06:53:00